sat.trackr.live / text

‹ back to catalog

STARLINK-35537

NORAD 66234 · 2025-245A

PAYLOAD ACTIVE UNKNOWN

§ Identity

Operator
Country
US
Launch date
2025-10-29
Launch site
AFETR
Launch vehicle
Mass (kg)
RCS (m²)

Purposes: comms

External: N2YO · Heavens-Above · Gunter

§ Orbital elements

Epoch: 2026-05-25T02:39:44.859168Z

Period
94.01 min
Inclination
53.1582°
Eccentricity
0.0000667
Mean motion
15.31758663 rev/d
Perigee alt
470.1 km
Apogee alt
471.0 km
Semi-major
6,848.7 km
B*
1.3070e-3
RAAN
288.4568°
Arg perigee
109.8522°
Mean anomaly
250.2551°
Rev number
3,296

§ Raw data

STARLINK-355371 66234U 25245A   26145.11093587  .00040486  00000+0  13070-2 0  99952 66234  53.1582 288.4568 0000667 109.8522 250.2551 15.31758663 32969

JSON: /api/v1/satellites/66234 · /tle

For live sub-satellite position, see the globe view (requires WebGL).

§ Visibility from observer

Set your observer location to see the next 7 days of passes ≥ 10°. The values pass through the URL so the page stays shareable.

No JS? Fill the form by hand. The geolocation button needs JavaScript.